Quillayute, WA

7:59 AM PDT on May 27, 2017 (GMT -0700)
Quillayute

Weather History for KUIL - December, 2010

Change the Weather History Date:

Tuesday, December 7, 2010

  Actual Average Record
Temperature  
Mean Temperature 53 °F 41 °F  
Max Temperature 55 °F 46 °F 59 °F (2014)
Min Temperature 50 °F 35 °F 13 °F (1972)
Degree Days  
Heating Degree Days 12 24  
Month to date heating degree days 168  
Since 1 July heating degree days 1882  
Cooling Degree Days 0 0  
Month to date cooling degree days 0  
Year to date cooling degree days 19  
Growing Degree Days 2 (Base 50)    
Moisture  
Dew Point 49 °F    
Average Humidity 93    
Maximum Humidity 96    
Minimum Humidity 77    
Precipitation  
Precipitation 1.17 in 0.45 in 2.71 in (1984)
Month to date precipitation 3.23  
Year to date precipitation 89.78  
Sea Level Pressure  
Sea Level Pressure 29.85 in    
Wind  
Wind Speed 13 mph (SE)    
Max Wind Speed 22 mph    
Max Gust Speed 36 mph    
Visibility 7 miles    
Events Rain    
T = Trace of Precipitation, MM = Missing Value Source: NWS Daily Summary

Daily Weather History Graph

Daily Weather History Graph

Search for Another Location

Airport or City:

Trip Planner

Search our weather history database for the weather conditions in past years. The results will help you decide how hot, cold, wet, or windy it might be!

Date:

Astronomy

Dec. 07, 2010 Rise Set
Actual Time 7:53 AM PST 4:25 PM PST
Civil Twilight 7:17 AM PST 5:01 PM PST
Nautical Twilight 6:38 AM PST 5:40 PM PST
Astronomical Twilight 6:01 AM PST 6:18 PM PST
Moon 9:45 AM PST (12/7) 6:29 PM PST (12/7)
Length of Visible Light 9h 43m
Length of Day
8h 31m
Waxing Crescent, 5% of the Moon is Illuminated
Dec 7
Waxing Crescent
Dec 13
First Quarter
Dec 21
Full
Dec 27
Last Quarter
Jan 4
New

Hourly Weather History & Observations

Time (PST) Temp. Dew Point Humidity Pressure Visibility Wind Dir Wind Speed Gust Speed Precip Events Conditions
12:45 AM 51.8 °F 50.0 °F 94% 30.05 in 8.0 mi SE 11.5 mph 17.3 mph 0.05 in Rain Light Rain
12:53 AM 51.1 °F 50.0 °F 96% 30.05 in 5.0 mi SE 12.7 mph 23.0 mph 0.06 in Rain Light Rain
1:04 AM 51.8 °F 50.0 °F 94% 30.05 in 6.0 mi SE 12.7 mph 19.6 mph 0.02 in Rain Light Rain
1:53 AM 51.1 °F 50.0 °F 96% 30.04 in 5.0 mi SE 10.4 mph 24.2 mph 0.12 in Rain Rain
2:17 AM 51.8 °F 50.0 °F 94% 30.03 in 3.0 mi SE 10.4 mph 24.2 mph 0.05 in Rain Light Rain
2:53 AM 51.1 °F 50.0 °F 96% 30.03 in 7.0 mi SSE 13.8 mph 28.8 mph 0.10 in Rain Light Rain
3:27 AM 51.8 °F 50.0 °F 94% 30.01 in 10.0 mi SE 16.1 mph 25.3 mph 0.01 in   Overcast
3:53 AM 52.0 °F 50.0 °F 93% 30.01 in 8.0 mi SSE 12.7 mph 25.3 mph 0.01 in Rain Light Rain
4:53 AM 51.1 °F 50.0 °F 96% 30.00 in 10.0 mi SE 11.5 mph 24.2 mph 0.09 in Rain Light Rain
5:53 AM 52.0 °F 50.0 °F 93% 29.98 in 10.0 mi SE 11.5 mph 21.9 mph 0.03 in   Overcast
6:53 AM 53.1 °F 48.9 °F 86% 29.98 in 10.0 mi SE 12.7 mph 21.9 mph 0.01 in   Overcast
7:53 AM 52.0 °F 48.9 °F 89% 29.95 in 10.0 mi SE 13.8 mph 25.3 mph 0.00 in Rain Light Rain
8:53 AM 52.0 °F 48.9 °F 89% 29.93 in 10.0 mi SE 13.8 mph 24.2 mph 0.02 in Rain Light Rain
9:53 AM 53.1 °F 48.9 °F 86% 29.91 in 10.0 mi SE 10.4 mph 20.7 mph 0.03 in Rain Light Rain
10:53 AM 55.0 °F 48.0 °F 77% 29.90 in 10.0 mi SE 11.5 mph 19.6 mph 0.00 in   Mostly Cloudy
11:53 AM 53.1 °F 48.0 °F 83% 29.88 in 8.0 mi SE 13.8 mph 23.0 mph 0.01 in Rain Light Rain
12:53 PM 51.1 °F 48.9 °F 92% 29.86 in 5.0 mi SE 11.5 mph 20.7 mph 0.07 in Rain Light Rain
1:53 PM 51.1 °F 48.9 °F 92% 29.81 in 9.0 mi SE 9.2 mph 20.7 mph 0.06 in Rain Light Rain
2:53 PM 51.1 °F 48.9 °F 92% 29.79 in 4.0 mi SE 13.8 mph 26.5 mph 0.05 in Rain Light Rain
3:53 PM 50.0 °F 48.0 °F 93% 29.78 in 4.0 mi SE 16.1 mph 32.2 mph 0.09 in Rain Light Rain
4:53 PM 50.0 °F 48.0 °F 93% 29.77 in 6.0 mi SSE 18.4 mph 31.1 mph 0.10 in Rain Light Rain
5:34 PM 50.0 °F 48.2 °F 94% 29.75 in 8.0 mi SSE 19.6 mph 28.8 mph 0.08 in Rain Light Rain
5:53 PM 50.0 °F 48.0 °F 93% 29.75 in 7.0 mi SSE 18.4 mph 29.9 mph 0.10 in Rain Light Rain
6:53 PM 50.0 °F 48.0 °F 93% 29.73 in 8.0 mi SE 19.6 mph 29.9 mph 0.07 in Rain Light Rain
7:53 PM 50.0 °F 48.9 °F 96% 29.72 in 9.0 mi SSE 15.0 mph 26.5 mph 0.03 in Rain Light Rain
8:53 PM 50.0 °F 48.9 °F 96% 29.72 in 4.0 mi SSE 11.5 mph 26.5 mph 0.04 in Rain Light Rain
9:05 PM 50.0 °F 48.2 °F 94% 29.70 in 2.5 mi SSE 9.2 mph 19.6 mph 0.04 in Rain Rain
9:12 PM 50.0 °F 48.2 °F 94% 29.70 in 5.0 mi SSE 9.2 mph 20.7 mph 0.05 in Rain Light Rain
9:51 PM 50.0 °F 48.2 °F 94% 29.68 in 6.0 mi SSE 8.1 mph 20.7 mph 0.07 in Rain Light Rain
9:53 PM 50.0 °F 48.9 °F 96% 29.68 in 6.0 mi SSE 15.0 mph 21.9 mph 0.07 in Rain Light Rain
10:03 PM 50.0 °F 48.2 °F 94% 29.68 in 10.0 mi South 12.7 mph 33.4 mph 0.00 in Rain Light Rain
10:53 PM 50.0 °F 48.9 °F 96% 29.68 in 8.0 mi SSE 10.4 mph 19.6 mph 0.01 in Rain Light Rain
11:13 PM 50.0 °F 48.2 °F 94% 29.67 in 10.0 mi SSE 10.4 mph 16.1 mph 0.00 in   Overcast
11:32 PM 50.0 °F 48.2 °F 94% 29.67 in 7.0 mi SSE 10.4 mph 16.1 mph 0.01 in Rain Light Rain
11:53 PM 50.0 °F 48.9 °F 96% 29.67 in 10.0 mi SSE 9.2 mph 21.9 mph 0.01 in   Overcast